Find Starlink 35233

NORAD ID: 65678 Int'l Des: 2025-212 Owner: SPXS Country: US Constellation: starlink operational
LEOCIRCULAR

現在のビュー

3D地球を読み込み中...

About Starlink 35233

Starlink 35233 (NORAD 65678) is a starlink constellation satellite (v2 mini) launched Sep 21, 2025 by SPXS of US. It operates in LEO, CIRCULAR orbit with a mass of 575.00 kg.

次回通過

Passes for default location (London). Set your location on the main map for personalized predictions.

高度履歴

Loading altitude history...

軌道要素

1 65678U 25212C 26263.19732840 .00029464 00000-0 95606-3 0 9991
2 65678 53.1580 161.4961 0000254 80.0976 280.0054 15.31747718 57044
Epoch: Sep 20, 2026 • Age: 27 hours

現在のステータス

高度 474.8 km
遠地点 / 近地点 N/A
速度 7.63 km/s
衛星直下点 -15.99°S, 34.79°E
打ち上げ日 Sep 21, 2025
運用期間 0.9 years
タイプ internet

技術仕様

分類 Payload
質量 575.00 kg
乾燥質量 530.00 kg
長さ 0.30 m
スパン 29.00 m
形状 ? Box + pan
製造者 SPXS
バスタイプ Starlink V2MO
フェーズステータス In Orbit
所有者/国 SPXS/US

Most Searched